Harrison, AR

10:20 PM CDT on March 22, 2017 (GMT -0500)
Boone County

Weather History for KHRO - July, 2013

Change the Weather History Date:

Wednesday, July 24, 2013

  Actual Average Record
Temperature  
Mean Temperature 77 °F 79 °F  
Max Temperature 84 °F 90 °F 108 °F (1934)
Min Temperature 69 °F 68 °F 49 °F (1904)
Degree Days  
Heating Degree Days 0 0  
Month to date heating degree days 0 0  
Since 1 June heating degree days 5 6  
Since 1 July heating degree days 0 0  
Cooling Degree Days 12 14  
Month to date cooling degree days 297 317  
Year to date cooling degree days 749 721  
Since 1 June cooling degree days 603 582  
Growing Degree Days 26 (Base 50)    
Moisture  
Dew Point 68 °F    
Average Humidity 76    
Maximum Humidity 93    
Minimum Humidity 58    
Precipitation  
Precipitation 0.06 in 0.10 in 3.07 in (1917)
Month to date precipitation 3.77 2.41  
Year to date precipitation 22.85 24.65  
Snow  
Snow 0.00 in 0.00 in - ()
Month to date snowfall 0.0 0.0  
Since 1 June snowfall 0.0 0.0  
Since 1 July snowfall 0.0 0.0  
Snow Depth 0.00 in    
Sea Level Pressure  
Sea Level Pressure 29.96 in    
Wind  
Wind Speed 5 mph (NNW)    
Max Wind Speed 21 mph    
Max Gust Speed 28 mph    
Visibility 10 miles    
Events Rain    
T = Trace of Precipitation, MM = Missing Value Source: NWS Daily Summary

Daily Weather History Graph

Daily Weather History Graph

Search for Another Location

Airport or City:

Trip Planner

Search our weather history database for the weather conditions in past years. The results will help you decide how hot, cold, wet, or windy it might be!

Date:

Astronomy

Jul. 24, 2013 Rise Set
Actual Time 6:13 AM CDT 8:24 PM CDT
Civil Twilight 5:44 AM CDT 8:53 PM CDT
Nautical Twilight 5:08 AM CDT 9:28 PM CDT
Astronomical Twilight 4:30 AM CDT 10:06 PM CDT
Moon 9:37 PM CDT (7/24) 8:28 AM CDT (7/24)
Length of Visible Light 15h 08m
Length of Day
14h 11m
Waning Gibbous, 94% of the Moon is Illuminated
Jul 24
Waning Gibbous
Jul 29
Last Quarter
Aug 6
New
Aug 14
First Quarter
Aug 20
Full

Hourly Weather History & Observations

Time (CDT) Temp. Heat Index Dew Point Humidity Pressure Visibility Wind Dir Wind Speed Gust Speed Precip Events Conditions
12:53 AM 73.0 °F - 66.0 °F 79% 29.87 in 10.0 mi South 5.8 mph - N/A   Clear
1:53 AM 73.0 °F - 66.0 °F 79% 29.88 in 10.0 mi Variable 4.6 mph - N/A   Clear
2:53 AM 71.1 °F - 66.9 °F 87% 29.89 in 10.0 mi West 10.4 mph 20.7 mph 0.01 in Rain Light Rain
3:53 AM 71.1 °F - 66.9 °F 87% 29.87 in 10.0 mi WSW 18.4 mph 27.6 mph 0.03 in Rain Light Rain
4:53 AM 70.0 °F - 66.0 °F 87% 29.86 in 10.0 mi North 9.2 mph - 0.02 in   Partly Cloudy
5:53 AM 70.0 °F - 66.9 °F 90% 29.88 in 10.0 mi NNW 5.8 mph - N/A   Clear
6:53 AM 69.1 °F - 66.9 °F 93% 29.91 in 10.0 mi Calm Calm - N/A   Partly Cloudy
7:14 AM 69.8 °F - 66.2 °F 88% 29.97 in 10.0 mi Calm Calm - N/A   Scattered Clouds
7:26 AM 69.8 °F - 68.0 °F 94% 29.98 in 10.0 mi Calm Calm - N/A   Mostly Cloudy
7:53 AM 71.1 °F - 68.0 °F 90% 29.95 in 10.0 mi Calm Calm - N/A   Overcast
8:34 AM 71.6 °F - 69.8 °F 94% 30.00 in 10.0 mi NNW 5.8 mph - N/A   Mostly Cloudy
8:53 AM 73.0 °F - 69.1 °F 87% 29.96 in 10.0 mi NNW 9.2 mph - N/A   Overcast
9:29 AM 75.2 °F - 69.8 °F 83% 30.00 in 10.0 mi NNW 9.2 mph - N/A   Mostly Cloudy
9:44 AM 75.2 °F - 69.8 °F 83% 30.00 in 10.0 mi NNW 9.2 mph - N/A   Mostly Cloudy
9:53 AM 75.9 °F - 69.1 °F 79% 29.97 in 10.0 mi NNW 8.1 mph - N/A   Mostly Cloudy
10:02 AM 75.2 °F - 69.8 °F 83% 30.01 in 10.0 mi NNW 9.2 mph - N/A   Mostly Cloudy
10:53 AM 77.0 °F - 68.0 °F 74% 29.99 in 10.0 mi NW 9.2 mph - N/A   Overcast
11:53 AM 78.1 °F - 68.0 °F 71% 29.99 in 10.0 mi NW 8.1 mph - N/A   Overcast
12:53 PM 81.0 °F 83.8 °F 68.0 °F 65% 29.98 in 10.0 mi North 8.1 mph 16.1 mph N/A   Scattered Clouds
1:53 PM 81.0 °F 83.0 °F 66.0 °F 60% 29.97 in 10.0 mi Variable 5.8 mph - N/A   Overcast
2:53 PM 82.0 °F 84.5 °F 66.9 °F 60% 29.96 in 10.0 mi North 5.8 mph - N/A   Overcast
3:53 PM 80.1 °F 82.7 °F 68.0 °F 67% 29.97 in 10.0 mi North 3.5 mph - N/A   Overcast
4:53 PM 84.0 °F 87.0 °F 68.0 °F 58% 29.95 in 10.0 mi Calm Calm - N/A   Mostly Cloudy
5:53 PM 82.9 °F 85.8 °F 68.0 °F 60% 29.95 in 10.0 mi Calm Calm - N/A   Mostly Cloudy
6:53 PM 82.0 °F 84.9 °F 68.0 °F 62% 29.94 in 10.0 mi East 3.5 mph - N/A   Partly Cloudy
7:53 PM 80.1 °F 83.2 °F 70.0 °F 71% 29.95 in 10.0 mi Calm Calm - N/A   Clear
8:53 PM 75.9 °F - 70.0 °F 82% 29.97 in 10.0 mi East 3.5 mph - N/A   Scattered Clouds
9:53 PM 73.9 °F - 70.0 °F 87% 29.99 in 10.0 mi SE 3.5 mph - N/A   Mostly Cloudy
10:53 PM 73.9 °F - 70.0 °F 87% 30.00 in 10.0 mi Calm Calm - N/A   Overcast
11:25 PM 71.6 °F - 69.8 °F 94% 30.05 in 10.0 mi NNW 3.5 mph - N/A   Mostly Cloudy
11:53 PM 72.0 °F - 69.1 °F 91% 30.01 in 10.0 mi Calm Calm - N/A   Partly Cloudy